Location: Hackberry
(29.5783°N, 96.8797°W)
Time: 13:17:00
(UTC+00:00)

Transit 2A - Pass Details

Date: 12 November 2024
Orbit: 592 x 956 km, 66.7° (Epoch: 02 December)

Event Time Altitude Azimuth Distance (km) Brightness Sun altitude
Exits shadow 09:17:02 17° 76° (ENE) 2,234 8.8 -46.3°
Drops below altitude 10° 09:19:05 10° 59° (ENE) 2,685 9.3 -45.9°
Sets 09:22:18 0° 44° (NE) 3,631 10.0 -45.2°
